Location: St. Louis
(38.6270°N, 90.1994°W)
Time: 12:41:46
(UTC-06:00)

Transit 2A - Pass Details

Date: 09 December 2021
Orbit: 591 x 967 km, 66.7° (Epoch: 16 January)

Event Time Altitude Azimuth Distance (km) Brightness Sun altitude
Rises 21:34:47 0° 183° (S) 3,235 - -56.6°
Reaches altitude 10° 21:37:13 10° 176° (S) 2,371 - -57.0°
Maximum altitude 21:42:16 38° 109° (ESE) 1,283 - -58.0°
Drops below altitude 10° 21:47:48 10° 43° (NE) 2,603 - -59.0°
Sets 21:50:34 0° 36° (NE) 3,591 - -59.5°
